Wind_Speed
18 17 17 17 17 16 16 15 14 15 15 15 14 14 15 15 15 16 16 17 18 18 18 19 20 21 22 23 23 24 25 25 25 24 24 24 25 25 25 25 25 26 26
19 18 18 18 17 17 16 16 16 15 15 15 15 15 14 14 15 15 15 16 17 17 18 18 19 19 20 21 21 21 22 23 23 23 23 23 24 24 24 25 25 25 25
18 18 18 18 17 17 16 16 16 16 15 15 14 14 14 14 14 15 15 16 16 17 17 17 17 17 18 19 19 19 19 19 20 21 22 22 23 24 24 24 24 25 25
18 19 18 18 18 18 17 16 16 16 14 14 14 14 14 14 14 14 15 15 16 16 16 16 16 17 17 19 19 19 19 19 19 20 20 21 22 22 23 24 24 24 24
19 19 19 19 18 18 18 17 16 15 14 14 13 13 14 14 14 14 14 15 15 15 16 16 16 17 17 18 18 18 19 19 19 19 20 21 22 22 22 23 23 23 24
19 19 18 19 19 19 18 16 16 15 14 14 13 13 13 13 13 14 14 14 14 14 15 15 16 16 17 17 17 17 17 18 19 19 19 20 20 21 22 22 22 22 23
20 20 19 20 19 18 18 17 15 15 15 14 13 13 13 13 13 13 14 14 14 14 14 15 15 15 16 16 16 16 16 17 18 18 18 19 19 19 20 20 21 22 23
20 20 19 20 20 19 18 17 16 15 14 14 13 12 13 13 13 13 14 14 13 13 13 14 14 15 15 15 15 16 16 16 17 17 17 18 18 19 20 21 21 22 23
20 20 19 19 19 18 18 17 15 14 14 13 12 12 13 13 13 13 13 14 13 13 13 13 14 13 13 13 14 15 17 17 17 17 18 19 19 19 20 21 22 22 22
20 20 19 19 18 18 17 16 15 14 13 12 12 12 12 13 13 13 13 14 13 13 13 12 12 14 14 14 14 15 16 17 18 19 19 20 19 20 20 21 22 22 23
19 18 18 18 17 17 16 14 13 13 12 12 12 12 13 13 13 13 13 13 12 13 13 13 13 13 14 14 14 15 15 17 18 18 19 19 19 19 19 20 20 21 22
17 16 16 16 17 16 15 14 14 13 12 12 12 13 13 13 13 13 13 13 13 13 14 14 14 13 13 13 14 14 15 16 17 17 17 18 18 18 19 19 20 21 22
16 17 17 17 17 17 16 15 15 14 13 13 13 13 13 13 14 13 13 13 13 13 14 14 14 14 14 14 15 16 16 16 16 17 17 17 18 18 19 19 19 20 22
17 17 18 18 17 16 16 16 15 15 14 14 14 14 14 14 13 13 13 13 14 14 14 14 15 16 16 16 16 17 17 17 17 17 18 17 18 18 18 19 20 21 22
17 17 17 17 16 15 14 14 15 15 14 14 14 14 14 14 14 14 14 14 14 14 14 15 15 16 16 16 16 16 17 17 17 17 17 17 18 18 19 19 20 21 22
17 17 17 17 16 16 15 14 14 14 15 15 14 14 14 14 15 14 14 14 15 15 15 16 16 16 16 17 17 17 17 18 18 18 18 18 18 18 19 19 21 21 23
17 17 17 16 16 16 16 15 15 15 15 15 16 16 16 15 15 15 15 15 15 15 16 16 17 17 17 18 18 18 18 18 19 19 19 19 19 20 20 21 22 23 23
18 17 17 17 17 17 18 17 16 16 16 16 16 17 17 17 17 17 16 16 17 17 17 17 18 18 18 18 18 18 19 19 20 20 20 20 21 21 22 22 22 23 24
18 17 17 17 17 18 18 18 17 17 17 17 17 17 17 18 17 18 18 18 18 19 19 19 18 18 18 18 18 19 20 20 20 19 19 20 21 22 22 22 23 23 24
18 18 18 18 18 19 19 19 18 18 18 18 19 18 17 18 18 18 18 19 19 20 19 19 19 19 19 19 20 20 21 20 20 19 20 21 22 22 22 23 23 24 26
18 18 18 18 19 19 20 20 19 20 19 19 19 19 19 19 19 19 19 19 19 19 20 20 20 19 19 20 20 21 21 20 20 20 20 21 22 23 23 24 25 25 26
19 18 19 19 19 19 19 19 20 20 21 21 20 21 21 21 21 21 20 20 20 21 21 21 20 20 20 20 20 20 21 21 21 21 22 22 23 23 24 25 26 26 27
20 19 19 19 19 19 20 20 20 21 22 21 21 21 22 22 22 21 21 21 21 21 21 21 21 21 21 21 21 22 21 21 21 22 23 23 24 25 26 26 27 27 27
19 20 20 20 20 20 20 21 21 21 22 21 21 21 22 22 22 22 22 22 22 22 22 22 21 21 22 22 23 23 22 22 23 23 24 25 25 26 27 27 27 27 27
19 20 20 20 21 21 21 22 22 22 22 23 23 22 21 21 21 22 22 22 23 23 23 23 23 23 23 24 24 24 23 23 23 24 25 25 25 26 26 27 27 26 26
19 19 20 20 20 21 21 22 22 23 23 23 22 22 22 21 21 21 22 22 23 23 24 23 24 24 24 24 24 24 23 23 24 24 25 25 25 25 26 26 26 26 26
Wind_Direction
278 280 284 287 289 291 295 291 282 283 284 283 282 281 279 276 275 275 275 276 276 275 277 275 273 271 270 269 268 266 266 265 264 266 268 268 270 273 274 273 272 270 272
277 279 280 284 286 288 289 291 288 282 281 280 278 278 279 278 278 277 277 279 281 279 279 278 275 274 271 270 271 270 268 266 266 267 268 268 270 273 273 273 272 271 271
275 278 279 278 280 285 287 288 289 284 280 278 276 276 276 277 279 279 281 284 284 283 284 283 279 278 275 274 275 274 271 269 268 268 270 271 271 273 272 273 272 272 272
275 275 278 276 275 280 281 283 284 281 279 275 273 272 273 275 277 280 282 284 286 286 286 283 280 280 279 277 275 272 271 270 272 271 273 273 273 273 272 273 272 273 274
274 276 276 276 276 277 277 277 279 278 277 273 270 271 274 275 276 278 279 282 286 288 287 284 281 281 282 280 276 273 272 273 273 274 275 275 275 275 275 276 274 274 276
271 275 276 275 279 277 274 271 274 275 275 274 272 272 273 274 275 276 278 284 288 290 289 286 283 282 283 281 280 278 276 275 274 276 279 279 280 278 278 277 275 277 279
268 271 273 276 279 276 270 269 268 272 275 274 270 271 273 274 277 278 278 285 291 294 293 293 289 285 284 283 281 279 277 277 277 278 281 281 280 281 282 281 281 282 282
266 268 270 271 273 273 269 264 266 268 271 273 271 273 274 274 275 278 281 285 288 292 298 300 296 293 289 283 280 279 279 280 280 280 283 283 283 285 285 285 285 285 285
266 266 266 268 270 267 265 262 264 265 265 268 270 272 275 277 279 280 284 290 291 292 296 301 302 300 296 291 285 281 281 283 283 284 286 286 286 286 286 286 286 286 287
266 264 263 265 266 263 260 258 258 260 262 263 265 269 271 275 279 282 285 289 292 295 296 297 301 305 305 301 294 289 285 285 286 286 287 286 286 286 286 287 287 287 287
263 261 261 262 260 259 256 254 254 256 260 262 265 268 272 275 280 283 286 290 291 292 293 296 301 304 303 302 298 293 290 290 290 289 290 289 290 289 290 291 291 290 288
263 260 258 257 255 254 252 253 253 254 258 258 263 268 272 273 277 282 285 287 287 290 293 295 297 300 300 301 301 298 296 296 296 294 293 293 292 290 290 292 292 292 292
259 260 260 257 253 250 249 250 250 251 255 259 262 264 269 275 279 281 282 284 287 291 293 294 296 299 299 299 300 301 301 299 299 299 297 296 295 295 296 296 296 295 295
258 260 261 258 253 248 246 246 247 249 256 259 261 264 268 273 279 281 282 284 287 289 291 292 295 297 300 301 302 302 301 299 298 299 299 299 298 299 299 299 299 299 300
258 258 258 257 252 250 248 248 250 252 256 256 259 264 269 273 277 279 281 283 286 286 289 293 296 298 300 300 302 304 303 301 301 302 302 300 301 302 301 301 301 301 302
256 256 254 252 253 252 251 251 250 250 253 255 259 262 266 271 273 277 281 281 282 284 289 292 294 296 297 299 302 304 304 303 302 302 302 303 303 304 303 302 302 302 303
252 252 249 248 249 249 250 251 250 251 256 261 263 263 264 267 271 276 280 282 283 285 290 291 293 295 297 300 302 304 304 303 301 301 301 301 301 302 302 301 302 302 303
249 249 247 247 246 248 251 251 250 252 256 260 263 264 266 268 267 271 277 281 284 287 290 291 293 295 298 301 304 303 302 300 299 300 300 300 301 302 303 303 304 304 305
246 247 247 246 244 246 248 246 248 252 254 257 261 264 270 271 271 273 276 281 284 287 289 290 292 296 298 298 300 301 301 300 301 301 301 301 303 303 303 304 305 306 307
248 249 249 246 244 245 246 246 248 250 252 257 260 264 269 272 273 276 278 280 283 288 290 291 293 294 295 297 299 300 300 300 300 300 301 303 304 304 303 304 304 306 308
248 249 249 246 245 246 246 246 247 248 252 259 262 265 268 270 273 275 277 281 284 286 288 290 291 293 295 295 297 298 299 298 298 300 302 304 306 305 304 305 305 306 308
246 248 250 250 248 247 248 249 250 254 257 260 263 268 269 269 270 272 276 281 283 284 286 287 287 288 291 295 295 296 296 298 299 300 301 302 304 306 307 307 305 305 306
247 248 250 251 250 249 249 250 253 256 258 260 262 264 266 269 270 273 277 280 282 283 285 287 288 287 289 292 294 295 295 296 298 300 301 302 303 305 306 306 307 306 306
249 250 251 252 252 251 252 255 256 258 260 262 263 263 266 268 271 275 278 279 281 282 284 286 289 290 290 290 290 291 292 294 296 299 302 303 303 304 305 305 307 308 309
250 252 254 253 252 253 255 256 258 260 261 262 264 265 268 269 272 275 277 279 281 283 285 286 287 291 293 293 291 291 291 293 295 298 300 301 303 304 306 307 308 309 309
249 252 254 254 253 254 257 259 259 260 262 262 263 266 268 269 273 276 278 280 281 284 285 286 288 291 292 293 292 290 291 293 295 298 299 300 302 305 307 308 309 309 309
Height
5807 5806 5805 5804 5803 5801 5800 5798 5797 5796 5795 5794 5792 5791 5790 5790 5789 5789 5788 5788 5788 5787 5786 5786 5785 5785 5785 5785 5786 5786 5787 5788 5789 5789 5789 5790 5790 5790 5790 5789 5789 5789 5789
5801 5801 5800 5799 5798 5797 5796 5794 5793 5792 5790 5789 5788 5787 5786 5786 5785 5784 5784 5783 5782 5781 5780 5780 5779 5779 5779 5779 5779 5779 5780 5780 5782 5782 5783 5783 5783 5783 5783 5783 5783 5782 5782
5796 5796 5795 5794 5793 5792 5791 5790 5788 5787 5786 5785 5784 5783 5782 5781 5781 5780 5779 5779 5778 5777 5775 5775 5774 5774 5774 5774 5774 5774 5774 5774 5775 5776 5776 5776 5776 5776 5776 5776 5776 5775 5775
5791 5790 5789 5788 5788 5787 5786 5785 5783 5782 5781 5780 5779 5779 5778 5777 5776 5776 5775 5774 5773 5772 5771 5770 5769 5769 5768 5768 5769 5769 5769 5769 5769 5770 5770 5770 5770 5770 5770 5770 5770 5769 5768
5785 5785 5784 5783 5782 5782 5781 5780 5779 5777 5776 5775 5775 5774 5774 5773 5772 5771 5771 5770 5769 5768 5766 5765 5764 5764 5764 5763 5763 5763 5764 5764 5764 5764 5765 5764 5764 5764 5764 5763 5763 5763 5762
5780 5779 5778 5777 5777 5776 5775 5775 5774 5773 5772 5771 5771 5770 5769 5769 5768 5767 5767 5766 5765 5764 5762 5761 5760 5759 5759 5758 5758 5758 5758 5759 5759 5759 5759 5759 5758 5758 5758 5757 5756 5756 5756
5774 5773 5773 5772 5771 5770 5770 5769 5769 5768 5767 5767 5767 5766 5766 5765 5764 5764 5763 5762 5761 5760 5758 5757 5755 5754 5753 5753 5753 5753 5753 5753 5753 5754 5753 5753 5752 5752 5752 5751 5750 5749 5749
5767 5767 5767 5766 5765 5765 5764 5764 5764 5764 5763 5763 5762 5762 5762 5761 5760 5760 5759 5758 5757 5756 5754 5753 5751 5750 5749 5749 5749 5749 5748 5748 5748 5748 5748 5747 5746 5745 5745 5745 5743 5743 5742
5761 5761 5761 5760 5760 5759 5759 5759 5759 5759 5759 5759 5759 5758 5758 5757 5757 5756 5756 5755 5754 5752 5751 5750 5748 5747 5745 5745 5744 5744 5744 5744 5743 5743 5742 5741 5740 5739 5739 5738 5737 5736 5735
5754 5754 5754 5754 5754 5754 5754 5754 5754 5754 5755 5755 5755 5755 5755 5754 5754 5753 5752 5752 5751 5749 5748 5747 5746 5744 5743 5742 5741 5740 5740 5740 5739 5738 5737 5736 5735 5734 5732 5731 5730 5729 5728
5748 5748 5748 5748 5748 5749 5749 5749 5749 5750 5750 5751 5751 5751 5751 5751 5751 5750 5749 5749 5747 5746 5746 5745 5743 5742 5740 5739 5738 5737 5736 5736 5734 5733 5732 5731 5730 5728 5727 5725 5723 5722 5721
5742 5742 5742 5742 5743 5743 5744 5744 5745 5746 5746 5747 5748 5748 5748 5748 5748 5747 5746 5745 5744 5744 5743 5742 5740 5739 5737 5736 5735 5734 5732 5731 5730 5729 5727 5726 5725 5723 5721 5720 5718 5716 5714
5737 5737 5736 5736 5737 5737 5738 5739 5740 5741 5742 5743 5744 5744 5744 5744 5744 5743 5742 5742 5741 5740 5740 5739 5737 5736 5734 5733 5731 5730 5729 5727 5726 5725 5723 5721 5720 5718 5716 5714 5712 5710 5708
5731 5731 5731 5731 5731 5731 5732 5733 5735 5736 5738 5739 5739 5740 5740 5740 5740 5739 5739 5738 5738 5737 5736 5735 5734 5732 5731 5729 5728 5726 5725 5723 5721 5720 5718 5717 5715 5713 5711 5709 5707 5704 5702
5725 5725 5725 5725 5726 5726 5728 5729 5730 5732 5733 5734 5735 5735 5736 5736 5736 5736 5735 5735 5734 5734 5732 5731 5730 5728 5727 5725 5724 5722 5721 5719 5717 5715 5713 5712 5710 5708 5705 5703 5701 5698 5696
5719 5720 5720 5720 5721 5722 5723 5724 5725 5726 5728 5729 5730 5731 5731 5731 5731 5731 5731 5730 5730 5730 5729 5727 5726 5724 5723 5721 5720 5718 5716 5714 5712 5711 5709 5707 5705 5703 5700 5698 5696 5693 5690
5714 5714 5715 5716 5717 5718 5719 5720 5721 5722 5723 5725 5725 5726 5726 5727 5727 5726 5726 5726 5726 5725 5724 5723 5721 5720 5718 5716 5715 5713 5711 5709 5707 5706 5704 5702 5700 5698 5695 5693 5690 5687 5684
5709 5709 5710 5711 5712 5713 5714 5715 5716 5718 5719 5720 5721 5721 5721 5721 5722 5722 5722 5722 5721 5720 5719 5718 5716 5715 5713 5711 5710 5708 5706 5704 5702 5700 5698 5696 5694 5692 5689 5687 5684 5681 5678
5703 5704 5705 5706 5707 5708 5710 5711 5712 5713 5715 5716 5716 5716 5716 5717 5717 5717 5717 5716 5716 5715 5713 5712 5711 5709 5708 5706 5704 5702 5700 5698 5696 5694 5693 5691 5688 5686 5683 5680 5678 5675 5672
5698 5699 5700 5701 5702 5703 5705 5706 5707 5708 5709 5710 5711 5711 5712 5712 5712 5712 5711 5711 5710 5709 5707 5706 5705 5703 5702 5700 5698 5697 5695 5692 5690 5689 5687 5685 5682 5680 5677 5674 5671 5668 5665
5693 5694 5695 5696 5697 5698 5700 5701 5702 5703 5704 5704 5705 5706 5706 5707 5706 5706 5705 5704 5704 5703 5701 5700 5699 5697 5696 5694 5692 5690 5689 5687 5685 5683 5681 5678 5676 5673 5670 5668 5665 5661 5658
5688 5689 5690 5691 5692 5693 5694 5696 5697 5697 5698 5698 5699 5700 5700 5700 5700 5700 5699 5698 5697 5696 5695 5694 5692 5691 5690 5688 5686 5684 5683 5681 5679 5677 5675 5672 5670 5667 5664 5661 5658 5655 5651
5682 5683 5685 5686 5687 5687 5688 5689 5690 5691 5692 5692 5693 5693 5694 5694 5694 5693 5693 5692 5691 5690 5689 5688 5686 5685 5683 5682 5680 5678 5676 5675 5673 5671 5668 5666 5663 5661 5658 5654 5651 5648 5644
5677 5677 5678 5680 5681 5682 5683 5683 5684 5685 5685 5686 5686 5687 5687 5687 5687 5687 5686 5685 5684 5684 5682 5681 5680 5678 5677 5675 5673 5671 5669 5668 5666 5664 5662 5659 5656 5654 5651 5647 5644 5641 5637
5671 5672 5672 5673 5674 5676 5677 5677 5678 5678 5679 5679 5679 5680 5680 5680 5680 5680 5679 5678 5677 5676 5675 5674 5673 5671 5670 5668 5666 5664 5662 5661 5659 5657 5655 5652 5649 5646 5643 5640 5637 5634 5630
5665 5666 5666 5667 5668 5669 5670 5670 5671 5671 5672 5672 5672 5673 5673 5673 5673 5672 5672 5671 5670 5669 5668 5667 5665 5664 5662 5660 5659 5657 5656 5654 5652 5650 5647 5645 5642 5640 5637 5633 5630 5627 5624